EW1549 Weather Reports


time (UTC)temp
C
wind
direction
speed
KPH
gust
KPH
rain 1hr
cm
rain 24hr
cm
rain mn
cm
humidity
%
barometer
mb
20260831053030 -17 236 3.2 8.0 0.00 0.00 0.00 1017.3
20260831051559 -17 236 1.6 4.8 0.00 0.00 0.00 1017.4
20260831050054 -17 236 4.8 9.7 0.00 0.00 0.00 1017.4
20260831044548 -17 263 0.0 8.0 0.00 0.00 0.00 1017.4
20260831043049 -17 220 3.2 6.4 0.00 0.00 0.00 1017.4
20260831041548 -17 41 6.4 17.7 0.00 0.00 0.00 1017.5
20260831040040 -17 130 0.0 14.5 0.00 0.00 0.00 1017.7
20260831034529 -17 356 0.0 6.4 0.00 0.00 0.00 1017.8
20260831033025 -17 60 3.2 14.5 0.00 0.00 0.00 1017.9
20260831031520 -17 211 0.0 0.0 0.00 0.00 0.00 1018.1
20260831030016 -17 212 0.0 8.0 0.00 0.00 0.00 1018.1
20260831024512 -17 213 4.8 9.7 0.00 0.00 0.00 1018.1
20260831023008 -17 223 0.0 0.0 0.00 0.00 0.00 1018.2
20260831021503 -17 223 0.0 6.4 0.00 0.00 0.00 1018.0
20260831020059 -17 223 0.0 0.0 0.00 0.00 0.00 1018.2
20260831014556 -17 223 0.0 4.8 0.00 0.00 0.00 1018.4
20260831013050 -17 223 0.0 6.4 0.00 0.00 0.00 1018.6
20260831011552 -17 223 0.0 0.0 0.00 0.00 0.00 1018.6
20260831010041 -17 223 0.0 0.0 0.00 0.00 0.00 1018.8
20260831004539 -17 223 0.0 0.0 0.00 0.00 0.00 1018.8
20260831003033 -17 223 0.0 6.4 0.00 0.00 0.00 1019.0
20260831001527 -17 223 0.0 4.8 0.00 0.00 0.00 1019.1
20260831000023 -17 223 0.0 0.0 0.00 0.00 0.00 1018.8
20260830234517 -17 223 0.0 0.0 0.00 0.00 0.00 1018.7
20260830233019 -17 223 0.0 0.0 0.00 0.00 0.00 1018.8
20260830231516 -17 223 0.0 8.0 0.00 0.00 0.00 1018.7
20260830230008 -17 142 6.4 11.3 0.00 0.00 0.00 1019.0
20260830224509 -17 192 0.0 6.4 0.00 0.00 0.00 1019.2
20260830223007 -17 268 1.6 4.8 0.00 0.00 0.00 1019.0
20260830221509 -17 270 0.0 4.8 0.00 0.00 0.00 1018.9
20260830220006 -17 270 4.8 6.4 0.00 0.00 0.00 1018.9
20260830214506 -17 329 0.0 8.0 0.00 0.00 0.00 1018.8
20260830213006 -17 46 0.0 0.0 0.00 0.00 0.00 1018.7
20260830211505 -17 46 4.8 14.5 0.00 0.00 0.00 1018.5
20260830210003 -17 30 0.0 14.5 0.00 0.00 0.00 1018.3
20260830204559 -17 12 4.8 12.9 0.00 0.00 0.00 1018.1
20260830203054 22 341 0.0 4.8 0.00 0.00 0.00 72 1018.0
20260830201554 -17 12 8.0 16.1 0.00 0.00 0.00 1017.9
20260830200052 -17 41 8.0 20.9 0.00 0.00 0.00 1017.8
20260830194600 -17 54 11.3 25.7 0.00 0.00 0.00 1017.6
20260830193040 -17 80 9.7 24.1 0.00 0.00 0.00 1017.6
20260830191541 -17 103 11.3 22.5 0.00 0.00 0.00 1017.6
20260830190038 -17 60 4.8 20.9 0.00 0.00 0.00 1017.5
20260830184533 -17 57 8.0 20.9 0.00 0.00 0.00 1017.4
20260830183034 -17 55 11.3 20.9 0.00 0.00 0.00 1017.3
20260830181524 -17 100 6.4 29.0 0.00 0.00 0.00 1017.3
20260830180030 -17 65 4.8 25.7 0.00 0.00 0.00 1017.3
20260830174518 -17 87 16.1 27.4 0.00 0.00 0.00 1017.2
20260830173008 -17 80 12.9 30.6 0.00 0.00 0.00 1017.2
20260830171513 -17 65 19.3 32.2 0.00 0.00 0.00 1017.1
20260830170100 -17 77 11.3 27.4 0.00 0.00 0.00 1017.0
20260830164557 -17 85 14.5 24.1 0.00 0.00 0.00 1017.0
20260830163059 -17 84 9.7 25.7 0.00 0.00 0.00 1017.1
20260830161551 -17 61 12.9 20.9 0.00 0.00 0.00 1017.2
20260830160057 -17 73 12.9 24.1 0.00 0.00 0.00 1017.1
20260830154542 -17 46 17.7 27.4 0.00 0.00 0.00 1016.8
20260830153041 -17 41 14.5 27.4 0.00 0.00 0.00 1017.0
20260830151545 -17 41 14.5 24.1 0.00 0.00 0.00 1017.2
20260830150040 -17 76 12.9 25.7 0.00 0.00 0.00 1017.3
20260830144539 -17 41 12.9 29.0 0.00 0.00 0.00 1017.5
20260830143046 -17 63 17.7 25.7 0.00 0.00 0.00 1017.6
20260830141540 -17 72 11.3 35.4 0.00 0.00 0.00 1017.8
20260830140044 -17 41 8.0 30.6 0.00 0.00 0.00 1018.0
20260830134551 -17 50 8.0 30.6 0.00 0.00 0.00 1018.0
20260830133041 -17 67 14.5 30.6 0.00 0.00 0.00 1018.1
20260830131544 -17 25 17.7 29.0 0.00 0.00 0.00 1018.3
20260830130054 -17 41 19.3 27.4 0.00 0.00 0.00 1018.5
20260830124541 -17 41 9.7 29.0 0.00 0.00 0.00 1018.9
20260830123044 -17 36 16.1 27.4 0.00 0.00 0.00 1019.0
20260830121539 -17 56 4.8 25.7 0.00 0.00 0.00 1019.2
20260830120026 -17 41 16.1 27.4 0.00 0.00 0.00 1019.2
20260830114521 -17 41 14.5 25.7 0.00 0.00 0.00 1019.3
20260830113016 -17 36 17.7 33.8 0.00 0.00 0.00 1019.2
20260830111513 -17 27 9.7 20.9 0.00 0.00 0.00 1019.0
20260830110011 -17 36 11.3 19.3 0.00 0.00 0.00 1019.1
20260830104505 -17 27 8.0 16.1 0.00 0.00 0.00 1018.9
20260830103003 -17 360 9.7 17.7 0.00 0.00 0.00 1018.8
20260830101502 -17 350 0.0 20.9 0.00 0.00 0.00 1018.8
20260830100101 -17 36 4.8 16.1 0.00 0.00 0.00 1018.6
20260830094556 -17 23 1.6 17.7 0.00 0.00 0.00 1018.5
20260830093023 -17 56 1.6 12.9 0.00 0.00 0.00 1018.4
20260830091529 -17 18 0.0 0.0 0.00 0.00 0.00 1018.3
20260830090016 -17 321 8.0 22.5 0.00 0.00 0.00 1018.2
20260830084515 -17 2 4.8 16.1 0.00 0.00 0.00 1018.3
20260830083013 -17 25 3.2 16.1 0.00 0.00 0.00 1018.3
20260830081508 -17 82 0.0 8.0 0.00 0.00 0.00 1018.2
20260830080004 -17 215 0.0 0.0 0.00 0.00 0.00 1017.9
20260830074604 -17 207 0.0 11.3 0.00 0.00 0.00 1017.6
20260830073055 -17 92 8.0 20.9 0.00 0.00 0.00 1017.5
20260830071555 -17 96 4.8 16.1 0.00 0.00 0.00 1017.4
20260830070046 -17 110 8.0 19.3 0.00 0.00 0.00 1017.4
20260830064541 -17 171 6.4 20.9 0.00 0.00 0.00 1017.4
20260830063037 -17 171 8.0 19.3 0.00 0.00 0.00 1017.2
20260830061549 -17 198 6.4 17.7 0.00 0.00 0.00 1017.3
20260830060028 -17 255 0.0 12.9 0.00 0.00 0.00 1017.2
20260830054528 -17 275 9.7 16.1 0.00 0.00 0.00 1017.1